Location: Buchberg
(46.9333°N, 15.8500°E)
Time: 19:59:17
(UTC+00:00)

H-2A R/B - Pass Details

Date: 14 July 2020
Orbit: 577 x 656 km, 98.5° (Epoch: 05 August)

Event Time Altitude Azimuth Distance (km) Brightness Sun altitude
Rises 02:03:07 0° 157° (SSE) 2,927 5.3 -10.3°
Reaches altitude 10° 02:05:20 10° 155° (SSE) 2,012 4.5 -10.0°
Maximum altitude 02:09:41 69° 73° (ENE) 671 2.4 -9.5°
Drops below altitude 10° 02:13:58 10° 351° (N) 1,979 5.2 -9.0°
Sets 02:16:08 0° 349° (NNW) 2,875 6.0 -8.8°
